Year,Month,Day,Hour,Minute,Value (Times are PST for temperature in C)
2008,07,15,00,00,14.30
2008,07,15,00,01,14.40
2008,07,15,00,02,14.40
2008,07,15,00,03,14.40
2008,07,15,00,04,14.40
2008,07,15,00,05,14.40
2008,07,15,00,06,14.40
2008,07,15,00,07,14.40
2008,07,15,00,08,14.40
2008,07,15,00,09,14.40
2008,07,15,00,10,14.40
2008,07,15,00,11,14.40
2008,07,15,00,12,14.40
2008,07,15,00,13,14.40
2008,07,15,01,02,13.60
2008,07,15,01,03,13.50
2008,07,15,01,04,13.50
2008,07,15,01,05,13.50
2008,07,15,01,06,13.40
2008,07,15,01,07,13.40
2008,07,15,01,08,13.40
2008,07,15,01,09,13.30
2008,07,15,01,10,13.30
2008,07,15,01,11,13.30
2008,07,15,01,12,13.30
2008,07,15,01,13,13.30
2008,07,15,01,14,13.20
2008,07,15,01,15,13.20
2008,07,15,01,16,13.20
2008,07,15,01,17,13.20
2008,07,15,01,18,13.10
2008,07,15,01,19,13.10
2008,07,15,01,20,13.10
2008,07,15,01,21,13.20
2008,07,15,01,22,13.20
2008,07,15,01,23,13.30
2008,07,15,01,24,13.30
2008,07,15,01,25,13.30
2008,07,15,01,26,13.30
2008,07,15,01,27,13.30
2008,07,15,01,28,13.20
2008,07,15,01,29,13.20
2008,07,15,01,30,13.20
2008,07,15,01,31,13.10
2008,07,15,01,32,13.10
2008,07,15,01,33,13.00
2008,07,15,01,34,12.90
2008,07,15,01,35,12.90
2008,07,15,01,36,12.90
2008,07,15,01,37,12.90
2008,07,15,01,38,12.80
2008,07,15,01,39,12.80
2008,07,15,01,40,12.80
2008,07,15,01,41,12.80
2008,07,15,01,42,12.80
2008,07,15,01,43,12.80
2008,07,15,01,44,12.80
2008,07,15,01,45,12.80
2008,07,15,01,46,12.80
2008,07,15,01,47,12.80
2008,07,15,01,48,12.80
2008,07,15,01,49,12.80
2008,07,15,01,50,12.90
2008,07,15,01,51,12.90
2008,07,15,01,52,13.00
2008,07,15,01,53,13.00
2008,07,15,01,54,13.10
2008,07,15,01,55,13.10
2008,07,15,01,56,13.10
2008,07,15,01,57,13.10
2008,07,15,01,58,13.20
2008,07,15,01,59,13.20
2008,07,15,02,00,13.20
2008,07,15,02,01,13.20
2008,07,15,02,02,13.20
2008,07,15,02,03,13.20
2008,07,15,02,04,13.20
2008,07,15,02,05,13.20
2008,07,15,02,06,13.30
2008,07,15,02,07,13.30
2008,07,15,02,08,13.30
2008,07,15,02,09,13.30
2008,07,15,02,10,13.30
2008,07,15,02,11,13.30
2008,07,15,02,12,13.30
2008,07,15,02,13,13.30
2008,07,15,02,14,13.40
2008,07,15,02,15,13.40
2008,07,15,02,16,13.50
2008,07,15,02,17,13.50
2008,07,15,02,18,13.60
2008,07,15,02,19,13.70
2008,07,15,02,20,13.80
2008,07,15,02,21,13.80
2008,07,15,02,22,13.80
2008,07,15,02,23,13.90
2008,07,15,02,24,14.00
2008,07,15,02,25,14.10
2008,07,15,02,26,14.10
2008,07,15,02,27,14.10
2008,07,15,02,28,14.20
2008,07,15,02,29,14.20
2008,07,15,02,30,14.20
2008,07,15,02,31,14.20
2008,07,15,02,32,14.20
2008,07,15,02,33,14.20
2008,07,15,02,34,14.20
2008,07,15,02,35,14.10
2008,07,15,02,36,14.10
2008,07,15,02,37,14.10
2008,07,15,02,38,14.10
2008,07,15,02,39,14.00
2008,07,15,02,40,14.00
2008,07,15,02,41,13.90
2008,07,15,02,42,13.90
2008,07,15,02,43,13.90
2008,07,15,02,44,13.90
2008,07,15,02,45,14.00
2008,07,15,02,46,14.00
2008,07,15,02,47,14.00
2008,07,15,02,48,14.00
2008,07,15,02,49,14.00
2008,07,15,02,50,14.00
2008,07,15,02,51,14.00
2008,07,15,02,52,14.10
2008,07,15,02,53,14.10
2008,07,15,02,54,14.10
2008,07,15,02,55,14.20
2008,07,15,02,56,14.20
2008,07,15,02,57,14.20
2008,07,15,02,58,14.20
2008,07,15,02,59,14.20
2008,07,15,03,00,14.20
2008,07,15,03,01,14.20
2008,07,15,03,02,14.10
2008,07,15,03,03,14.10
2008,07,15,03,04,14.10
2008,07,15,03,05,14.10
2008,07,15,03,06,14.00
2008,07,15,03,07,13.90
2008,07,15,03,08,13.90
2008,07,15,03,09,13.80
2008,07,15,03,10,13.80
2008,07,15,03,11,13.70
2008,07,15,03,12,13.60
2008,07,15,03,13,13.60
2008,07,15,03,14,13.60
2008,07,15,03,15,13.50
2008,07,15,03,16,13.50
2008,07,15,03,17,13.40
2008,07,15,03,18,13.40
2008,07,15,03,19,13.40
2008,07,15,03,20,13.40
2008,07,15,03,21,13.40
2008,07,15,03,22,13.30
2008,07,15,03,23,13.30
2008,07,15,03,24,13.30
2008,07,15,03,25,13.30
2008,07,15,03,26,13.30
2008,07,15,03,27,13.40
2008,07,15,03,28,13.40
2008,07,15,03,29,13.40
2008,07,15,03,30,13.40
2008,07,15,03,31,13.40
2008,07,15,03,32,13.40
2008,07,15,03,33,13.40
2008,07,15,03,34,13.40
2008,07,15,03,35,13.40
2008,07,15,03,36,13.40
2008,07,15,03,37,13.40
2008,07,15,03,38,13.40
2008,07,15,03,39,13.40
2008,07,15,03,40,13.40
2008,07,15,03,41,13.40
2008,07,15,03,42,13.40
2008,07,15,03,43,13.50
2008,07,15,03,44,13.50
2008,07,15,03,45,13.50
2008,07,15,03,46,13.50
2008,07,15,03,47,13.50
2008,07,15,03,48,13.40
2008,07,15,03,49,13.40
2008,07,15,03,50,13.40
2008,07,15,03,51,13.30
2008,07,15,03,52,13.30
2008,07,15,03,53,13.30
2008,07,15,03,54,13.20
2008,07,15,03,55,13.20
2008,07,15,03,56,13.20
2008,07,15,03,57,13.10
2008,07,15,03,58,13.10
2008,07,15,03,59,13.00
2008,07,15,04,00,12.90
2008,07,15,04,01,12.90
2008,07,15,04,02,12.80
2008,07,15,04,03,12.80
2008,07,15,04,04,12.70
2008,07,15,04,05,12.70
2008,07,15,04,06,12.70
2008,07,15,04,07,12.70
2008,07,15,04,08,12.60
2008,07,15,04,09,12.60
2008,07,15,04,10,12.50
2008,07,15,04,11,12.50
2008,07,15,04,12,12.50
2008,07,15,04,13,12.40
2008,07,15,04,14,12.40
2008,07,15,04,15,12.40
2008,07,15,04,16,12.40
2008,07,15,04,17,12.50
2008,07,15,04,18,12.50
2008,07,15,04,19,12.50
2008,07,15,04,20,12.60
2008,07,15,04,21,12.60
2008,07,15,04,22,12.60
2008,07,15,04,23,12.70
2008,07,15,04,24,12.70
2008,07,15,04,25,12.80
2008,07,15,04,26,12.80
2008,07,15,04,27,12.70
2008,07,15,04,28,12.70
2008,07,15,04,29,12.70
2008,07,15,04,30,12.60
2008,07,15,04,31,12.60
2008,07,15,04,32,12.60
2008,07,15,04,33,12.60
2008,07,15,04,34,12.60
2008,07,15,04,35,12.60
2008,07,15,04,36,12.60
2008,07,15,04,37,12.60
2008,07,15,04,38,12.60
2008,07,15,04,39,12.60
2008,07,15,04,40,12.60
2008,07,15,04,41,12.60
2008,07,15,04,42,12.50
2008,07,15,04,43,12.50
2008,07,15,04,44,12.50
2008,07,15,04,45,12.40
2008,07,15,04,46,12.40
2008,07,15,04,47,12.40
2008,07,15,04,48,12.30
2008,07,15,04,49,12.30
2008,07,15,04,50,12.30
2008,07,15,04,51,12.20
2008,07,15,04,52,12.20
2008,07,15,04,53,12.20
2008,07,15,04,54,12.10
2008,07,15,04,55,12.10
2008,07,15,04,56,12.10
2008,07,15,04,57,12.10
2008,07,15,04,58,12.10
2008,07,15,04,59,12.10
2008,07,15,05,00,12.10
2008,07,15,05,01,12.10
2008,07,15,05,02,12.10
2008,07,15,05,03,12.10
2008,07,15,05,04,12.10
2008,07,15,05,05,12.10
2008,07,15,05,06,12.10
2008,07,15,05,07,12.10
2008,07,15,05,08,12.10
2008,07,15,05,09,12.10
2008,07,15,05,10,12.00
2008,07,15,05,11,12.00
2008,07,15,05,12,12.00
2008,07,15,05,13,12.00
2008,07,15,05,14,11.90
2008,07,15,05,15,12.00
2008,07,15,05,16,12.00
2008,07,15,05,17,12.00
2008,07,15,05,18,12.00
2008,07,15,05,19,12.00
2008,07,15,05,20,12.00
2008,07,15,05,21,12.00
2008,07,15,05,22,12.00
2008,07,15,05,23,11.90
2008,07,15,05,24,11.90
2008,07,15,05,25,11.90
2008,07,15,05,26,11.90
2008,07,15,05,27,11.90
2008,07,15,05,28,11.90
2008,07,15,05,29,11.90
2008,07,15,05,30,11.90
2008,07,15,05,31,11.90
2008,07,15,05,32,11.90
2008,07,15,05,33,11.90
2008,07,15,05,34,11.90
2008,07,15,05,35,11.90
2008,07,15,05,36,11.90
2008,07,15,05,37,11.90
2008,07,15,05,38,11.90
2008,07,15,05,39,11.80
2008,07,15,05,40,11.80
2008,07,15,05,41,11.80
2008,07,15,05,42,11.80
2008,07,15,05,43,11.90
2008,07,15,05,44,11.90
2008,07,15,05,45,11.90
2008,07,15,05,46,11.90
2008,07,15,05,47,11.90
2008,07,15,05,48,11.90
2008,07,15,05,49,11.90
2008,07,15,05,50,11.80
2008,07,15,05,51,11.80
2008,07,15,05,52,11.80
2008,07,15,05,53,11.80
2008,07,15,05,54,11.80
2008,07,15,05,55,11.80
2008,07,15,05,56,11.80
2008,07,15,05,57,11.70
2008,07,15,05,58,11.70
2008,07,15,05,59,11.70
2008,07,15,06,00,11.70
2008,07,15,06,01,11.70
2008,07,15,06,02,11.70
2008,07,15,06,03,11.70
2008,07,15,06,04,11.70
2008,07,15,06,05,11.70
2008,07,15,06,06,11.70
2008,07,15,06,07,11.80
2008,07,15,06,08,11.80
2008,07,15,06,09,11.80
2008,07,15,06,10,11.80
2008,07,15,06,11,11.80
2008,07,15,06,12,11.80
2008,07,15,06,13,11.80
2008,07,15,06,14,11.90
2008,07,15,06,15,11.90
2008,07,15,06,16,11.90
2008,07,15,06,17,11.90
2008,07,15,06,18,12.00
2008,07,15,06,19,12.00
2008,07,15,06,20,12.10
2008,07,15,06,21,12.10
2008,07,15,06,22,12.10
2008,07,15,06,23,12.10
2008,07,15,06,24,12.20
2008,07,15,06,25,12.20
2008,07,15,06,26,12.20
2008,07,15,06,27,12.30
2008,07,15,06,28,12.30
2008,07,15,06,29,12.30
2008,07,15,06,30,12.30
2008,07,15,06,31,12.30
2008,07,15,06,32,12.30
2008,07,15,06,33,12.40
2008,07,15,06,34,12.40
2008,07,15,06,35,12.40
2008,07,15,06,36,12.50
2008,07,15,06,37,12.50
2008,07,15,06,38,12.50
2008,07,15,06,39,12.60
2008,07,15,06,40,12.60
2008,07,15,06,41,12.60
2008,07,15,06,42,12.70
2008,07,15,06,43,12.70
2008,07,15,06,44,12.70
2008,07,15,06,45,12.80
2008,07,15,06,46,12.80
2008,07,15,06,47,12.80
2008,07,15,06,48,12.90
2008,07,15,06,49,13.00
2008,07,15,06,50,13.10
2008,07,15,06,51,13.10
2008,07,15,06,52,13.20
2008,07,15,06,53,13.20
2008,07,15,06,54,13.30
2008,07,15,06,55,13.30
2008,07,15,06,56,13.40
2008,07,15,06,57,13.50
2008,07,15,06,58,13.50
2008,07,15,06,59,13.60
2008,07,15,07,00,13.60
2008,07,15,07,01,13.70
2008,07,15,07,02,13.80
2008,07,15,07,03,13.80
2008,07,15,07,04,13.90
2008,07,15,07,05,14.00
2008,07,15,07,06,14.10
2008,07,15,07,07,14.10
2008,07,15,07,08,14.20
2008,07,15,07,09,14.30
2008,07,15,07,10,14.40
2008,07,15,07,11,14.40
2008,07,15,07,12,14.40
2008,07,15,07,13,14.50
2008,07,15,07,14,14.50
2008,07,15,07,15,14.50
2008,07,15,07,16,14.60
2008,07,15,07,17,14.60
2008,07,15,07,18,14.60
2008,07,15,07,19,14.60
2008,07,15,07,20,14.60
2008,07,15,07,21,14.60
2008,07,15,07,22,14.60
2008,07,15,07,23,14.60
2008,07,15,07,24,14.60
2008,07,15,07,25,14.60
2008,07,15,07,26,14.60
2008,07,15,07,27,14.60
2008,07,15,07,28,14.60
2008,07,15,07,29,14.70
2008,07,15,07,30,14.70
2008,07,15,07,31,14.70
2008,07,15,07,32,14.80
2008,07,15,07,33,14.80
2008,07,15,07,34,14.80
2008,07,15,07,35,14.80
2008,07,15,07,36,14.80
2008,07,15,07,37,14.80
2008,07,15,07,38,14.90
2008,07,15,07,39,14.90
2008,07,15,07,40,14.90
2008,07,15,07,41,15.00
2008,07,15,07,42,15.00
2008,07,15,07,43,15.00
2008,07,15,07,44,15.00
2008,07,15,07,45,15.00
2008,07,15,07,46,15.00
2008,07,15,07,47,15.00
2008,07,15,07,48,15.10
2008,07,15,07,49,15.10
2008,07,15,07,50,15.20
2008,07,15,07,51,15.10
2008,07,15,07,52,15.10
2008,07,15,07,53,15.10
2008,07,15,07,54,15.00
2008,07,15,07,55,15.00
2008,07,15,07,56,15.00
2008,07,15,07,57,15.00
2008,07,15,07,58,15.00
2008,07,15,07,59,15.00
2008,07,15,08,00,15.00
2008,07,15,08,01,15.00
2008,07,15,08,02,15.00
2008,07,15,08,03,15.00
2008,07,15,08,04,15.00
2008,07,15,08,05,15.00
2008,07,15,08,06,15.00
2008,07,15,08,07,15.00
2008,07,15,08,08,15.00
2008,07,15,08,09,15.00
2008,07,15,08,10,15.00
2008,07,15,08,11,15.00
2008,07,15,08,12,15.00
2008,07,15,08,13,15.00
2008,07,15,08,14,15.00
2008,07,15,08,15,15.10
2008,07,15,08,16,15.20
2008,07,15,08,17,15.20
2008,07,15,08,18,15.30
2008,07,15,08,19,15.30
2008,07,15,08,20,15.20
2008,07,15,08,21,15.30
2008,07,15,08,22,15.30
2008,07,15,08,23,15.20
2008,07,15,08,24,15.30
2008,07,15,08,25,15.30
2008,07,15,08,26,15.30
2008,07,15,08,27,15.40
2008,07,15,08,28,15.40
2008,07,15,08,29,15.40
2008,07,15,08,30,15.50
2008,07,15,08,31,15.50
2008,07,15,08,32,15.60
2008,07,15,08,33,15.60
2008,07,15,08,34,15.60
2008,07,15,08,35,15.60
2008,07,15,08,36,15.50
2008,07,15,08,37,15.50
2008,07,15,08,38,15.40
2008,07,15,08,39,15.40
2008,07,15,08,40,15.50
2008,07,15,08,41,15.50
2008,07,15,08,42,15.60
2008,07,15,08,43,15.60
2008,07,15,08,44,15.70
2008,07,15,08,45,15.70
2008,07,15,08,46,15.80
2008,07,15,08,47,15.90
2008,07,15,08,48,15.90
2008,07,15,08,49,16.00
2008,07,15,08,50,16.00
2008,07,15,08,51,16.10
2008,07,15,08,52,16.20
2008,07,15,08,53,16.20
2008,07,15,08,54,16.20
2008,07,15,08,55,16.20
2008,07,15,08,56,16.10
2008,07,15,08,57,16.10
2008,07,15,08,58,16.10
2008,07,15,08,59,16.20
2008,07,15,09,00,16.30
2008,07,15,09,01,16.30
2008,07,15,09,02,16.30
2008,07,15,09,03,16.30
2008,07,15,09,04,16.30
2008,07,15,09,05,16.30
2008,07,15,09,06,16.30
2008,07,15,09,07,16.30
2008,07,15,09,08,16.30
2008,07,15,09,09,16.30
2008,07,15,09,10,16.30
2008,07,15,09,11,16.30
2008,07,15,09,12,16.30
2008,07,15,09,13,16.30
2008,07,15,09,14,16.20
2008,07,15,09,15,16.10
2008,07,15,09,16,16.10
2008,07,15,09,17,16.00
2008,07,15,09,18,15.90
2008,07,15,09,19,15.90
2008,07,15,09,20,15.90
2008,07,15,09,21,15.90
2008,07,15,09,22,15.90
2008,07,15,09,23,15.90
2008,07,15,09,24,15.90
2008,07,15,09,25,15.90
2008,07,15,09,26,15.90
2008,07,15,09,27,15.90
2008,07,15,09,28,15.90
2008,07,15,09,29,15.90
2008,07,15,09,30,15.80
2008,07,15,09,31,15.80
2008,07,15,09,32,15.90
2008,07,15,09,33,15.90
2008,07,15,09,34,15.90
2008,07,15,09,35,15.90
2008,07,15,09,36,15.90
2008,07,15,09,37,15.90
2008,07,15,09,38,15.80
2008,07,15,09,39,15.80
2008,07,15,09,40,15.70
2008,07,15,09,41,15.70
2008,07,15,09,42,15.70
2008,07,15,09,43,15.70
2008,07,15,09,44,15.80
2008,07,15,09,45,15.80
2008,07,15,09,46,15.90
2008,07,15,09,47,15.90
2008,07,15,09,48,15.90
2008,07,15,09,49,15.90
2008,07,15,09,50,15.90
2008,07,15,09,51,15.90
2008,07,15,09,52,15.80
2008,07,15,09,53,15.80
2008,07,15,09,54,15.80
2008,07,15,09,55,15.70
2008,07,15,09,56,15.70
2008,07,15,09,57,15.80
2008,07,15,09,58,15.80
2008,07,15,09,59,15.80
2008,07,15,10,00,15.80
2008,07,15,10,01,15.80
2008,07,15,10,02,15.80
2008,07,15,10,03,15.80
2008,07,15,10,04,15.80
2008,07,15,10,05,15.80
2008,07,15,10,06,15.80
2008,07,15,10,07,15.80
2008,07,15,10,08,15.80
2008,07,15,10,09,15.80
2008,07,15,10,10,15.80
2008,07,15,10,11,15.80
2008,07,15,10,12,15.90
2008,07,15,10,13,15.90
2008,07,15,10,14,15.90
2008,07,15,10,15,16.00
2008,07,15,10,16,16.00
2008,07,15,10,17,16.10
2008,07,15,10,18,16.00
2008,07,15,10,19,16.10
2008,07,15,10,20,16.10
2008,07,15,10,21,16.10
2008,07,15,10,22,16.20
2008,07,15,10,23,16.20
2008,07,15,10,24,16.30
2008,07,15,10,25,16.30
2008,07,15,10,26,16.30
2008,07,15,10,27,16.30
2008,07,15,10,28,16.30
2008,07,15,10,29,16.30
2008,07,15,10,30,16.40
2008,07,15,10,31,16.50
2008,07,15,10,32,16.60
2008,07,15,10,33,16.50
2008,07,15,10,34,16.40
2008,07,15,10,35,16.30
2008,07,15,10,36,16.30
2008,07,15,10,37,16.30
2008,07,15,10,38,16.30
2008,07,15,10,39,16.20
2008,07,15,10,40,16.20
2008,07,15,10,41,16.20
2008,07,15,10,42,16.10
2008,07,15,10,43,16.10
2008,07,15,10,44,16.10
2008,07,15,10,45,16.10
2008,07,15,10,46,16.10
2008,07,15,10,47,16.10
2008,07,15,10,48,16.20
2008,07,15,10,49,16.30
2008,07,15,10,50,16.30
2008,07,15,10,51,16.30
2008,07,15,10,52,16.30
2008,07,15,10,53,16.30
2008,07,15,10,54,16.40
2008,07,15,10,55,16.30
2008,07,15,10,56,16.30
2008,07,15,10,57,16.30
2008,07,15,10,58,16.20
2008,07,15,10,59,16.20
2008,07,15,11,00,16.20
2008,07,15,11,01,16.20
2008,07,15,11,02,16.30
2008,07,15,11,03,16.30
2008,07,15,11,04,16.40
2008,07,15,11,05,16.50
2008,07,15,11,06,16.70
2008,07,15,11,07,16.70
2008,07,15,11,08,16.80
2008,07,15,11,09,16.80
2008,07,15,11,10,16.80
2008,07,15,11,11,16.80
2008,07,15,11,12,16.70
2008,07,15,11,13,16.70
2008,07,15,11,14,16.70
2008,07,15,11,15,16.70
2008,07,15,11,16,16.70
2008,07,15,11,17,16.70
2008,07,15,11,18,16.70
2008,07,15,11,19,16.80
2008,07,15,11,20,16.80
2008,07,15,11,21,16.80
2008,07,15,11,22,16.80
2008,07,15,11,23,16.90
2008,07,15,11,24,16.90
2008,07,15,11,25,17.00
2008,07,15,11,26,17.00
2008,07,15,11,27,17.10
2008,07,15,11,28,17.10
2008,07,15,11,29,17.20
2008,07,15,11,30,17.20
2008,07,15,11,31,17.20
2008,07,15,11,32,17.30
2008,07,15,11,33,17.20
2008,07,15,11,34,17.20
2008,07,15,11,35,17.20
2008,07,15,11,36,17.20
2008,07,15,11,37,17.20
2008,07,15,11,38,17.20
2008,07,15,11,39,17.20
2008,07,15,11,40,17.20
2008,07,15,11,41,17.20
2008,07,15,11,42,17.30
2008,07,15,11,43,17.30
2008,07,15,11,44,17.30
2008,07,15,11,45,17.30
2008,07,15,11,46,17.30
2008,07,15,11,47,17.30
2008,07,15,11,48,17.40
2008,07,15,11,49,17.50
2008,07,15,11,50,17.50
2008,07,15,11,51,17.60
2008,07,15,11,52,17.60
2008,07,15,11,53,17.70
2008,07,15,11,54,17.80
2008,07,15,11,55,17.80
2008,07,15,11,56,17.80
2008,07,15,11,57,17.90
2008,07,15,11,58,18.00
2008,07,15,11,59,18.10
2008,07,15,12,00,18.20
2008,07,15,12,01,18.20
2008,07,15,12,02,18.20
2008,07,15,12,03,18.20
2008,07,15,12,04,18.10
2008,07,15,12,05,18.10
2008,07,15,12,06,18.10
2008,07,15,12,07,18.20
2008,07,15,12,08,18.20
2008,07,15,12,09,18.20
2008,07,15,12,10,18.20
2008,07,15,12,11,18.30
2008,07,15,12,12,18.30
2008,07,15,12,13,18.40
2008,07,15,12,14,18.40
2008,07,15,12,15,18.60
2008,07,15,12,16,18.70
2008,07,15,12,17,18.90
2008,07,15,12,18,19.00
2008,07,15,12,19,19.20
2008,07,15,12,20,19.30
2008,07,15,12,21,19.40
2008,07,15,12,22,19.40
2008,07,15,12,23,19.40
2008,07,15,12,24,19.30
2008,07,15,12,25,19.40
2008,07,15,12,26,19.40
2008,07,15,12,27,19.50
2008,07,15,12,28,19.50
2008,07,15,12,29,19.50
2008,07,15,12,30,19.40
2008,07,15,12,31,19.40
2008,07,15,12,32,19.40
2008,07,15,12,33,19.40
2008,07,15,12,34,19.40
2008,07,15,12,35,19.40
2008,07,15,12,36,19.40
2008,07,15,12,37,19.30
2008,07,15,12,38,19.40
2008,07,15,12,39,19.40
2008,07,15,12,40,19.50
2008,07,15,12,41,19.50
2008,07,15,12,42,19.50
2008,07,15,12,43,19.50
2008,07,15,12,44,19.60
2008,07,15,12,45,19.60
2008,07,15,12,46,19.70
2008,07,15,12,47,19.70
2008,07,15,12,48,19.80
2008,07,15,12,49,19.90
2008,07,15,12,50,19.90
2008,07,15,12,51,20.00
2008,07,15,12,52,20.10
2008,07,15,12,53,20.20
2008,07,15,12,54,20.30
2008,07,15,12,55,20.30
2008,07,15,12,56,20.40
2008,07,15,12,57,20.40
2008,07,15,12,58,20.40
2008,07,15,12,59,20.40
2008,07,15,13,00,20.40
2008,07,15,13,01,20.40
2008,07,15,13,02,20.30
2008,07,15,13,03,20.30
2008,07,15,13,04,20.20
2008,07,15,13,05,20.20
2008,07,15,13,06,20.10
2008,07,15,13,07,20.00
2008,07,15,13,08,19.90
2008,07,15,13,09,19.80
2008,07,15,13,10,19.70
2008,07,15,13,11,19.60
2008,07,15,13,12,19.50
2008,07,15,13,13,19.50
2008,07,15,13,14,19.40
2008,07,15,13,15,19.40
2008,07,15,13,16,19.40
2008,07,15,13,17,19.40
2008,07,15,13,18,19.40
2008,07,15,13,19,19.30
2008,07,15,13,20,19.40
2008,07,15,13,21,19.40
2008,07,15,13,22,19.40
2008,07,15,13,23,19.50
2008,07,15,13,24,19.50
2008,07,15,13,25,19.60
2008,07,15,13,26,19.60
2008,07,15,13,27,19.60
2008,07,15,13,28,19.70
2008,07,15,13,29,19.70
2008,07,15,13,30,19.90
2008,07,15,13,31,20.00
2008,07,15,13,32,20.10
2008,07,15,13,33,20.10
2008,07,15,13,34,20.00
2008,07,15,13,35,19.90
2008,07,15,13,36,19.90
2008,07,15,13,37,19.90
2008,07,15,13,38,19.80
2008,07,15,13,39,19.80
2008,07,15,13,40,19.80
2008,07,15,13,41,19.80
2008,07,15,13,42,19.90
2008,07,15,13,43,20.00
2008,07,15,13,44,20.10
2008,07,15,13,45,20.20
2008,07,15,13,46,20.30
2008,07,15,13,47,20.30
2008,07,15,13,48,20.30
2008,07,15,13,49,20.40
2008,07,15,13,50,20.40
2008,07,15,13,51,20.40
2008,07,15,13,52,20.40
2008,07,15,13,53,20.40
2008,07,15,13,54,20.40
2008,07,15,13,55,20.30
2008,07,15,13,56,20.30
2008,07,15,13,57,20.30
2008,07,15,13,58,20.30
2008,07,15,13,59,20.30
2008,07,15,14,00,20.30
2008,07,15,14,01,20.30
2008,07,15,14,02,20.30
2008,07,15,14,03,20.40
2008,07,15,14,04,20.40
2008,07,15,14,05,20.30
2008,07,15,14,06,20.40
2008,07,15,14,07,20.40
2008,07,15,14,08,20.50
2008,07,15,14,09,20.60
2008,07,15,14,10,20.70
2008,07,15,14,11,20.80
2008,07,15,14,12,20.80
2008,07,15,14,13,20.90
2008,07,15,14,14,20.90
2008,07,15,14,15,20.90
2008,07,15,14,16,21.00
2008,07,15,14,17,21.00
2008,07,15,14,18,21.00
2008,07,15,14,19,21.00
2008,07,15,14,20,21.10
2008,07,15,14,21,21.10
2008,07,15,14,22,21.10
2008,07,15,14,23,21.20
2008,07,15,14,24,21.30
2008,07,15,14,25,21.40
2008,07,15,14,26,21.60
2008,07,15,14,27,21.70
2008,07,15,14,28,21.80
2008,07,15,14,29,21.80
2008,07,15,14,30,21.80
2008,07,15,14,31,21.70
2008,07,15,14,32,21.60
2008,07,15,14,33,21.50
2008,07,15,14,34,21.50
2008,07,15,14,35,21.60
2008,07,15,14,36,21.70
2008,07,15,14,37,21.70
2008,07,15,14,38,21.70
2008,07,15,14,39,21.60
2008,07,15,14,40,21.50
2008,07,15,14,41,21.50
2008,07,15,14,42,21.60
2008,07,15,14,43,21.60
2008,07,15,14,44,21.60
2008,07,15,14,45,21.60
2008,07,15,14,46,21.60
2008,07,15,14,47,21.60
2008,07,15,14,48,21.50
2008,07,15,14,49,21.50
2008,07,15,14,50,21.50
2008,07,15,14,51,21.60
2008,07,15,14,52,21.60
2008,07,15,14,53,21.60
2008,07,15,14,54,21.60
2008,07,15,14,55,21.70
2008,07,15,14,56,21.70
2008,07,15,14,57,21.70
2008,07,15,14,58,21.70
2008,07,15,14,59,21.70
2008,07,15,15,00,21.70
2008,07,15,15,01,21.60
2008,07,15,15,02,21.60
2008,07,15,15,03,21.50
2008,07,15,15,04,21.40
2008,07,15,15,05,21.30
2008,07,15,15,06,21.10
2008,07,15,15,07,21.00
2008,07,15,15,08,20.90
2008,07,15,15,09,20.80
2008,07,15,15,10,20.70
2008,07,15,15,11,20.70
2008,07,15,15,12,20.70
2008,07,15,15,13,20.60
2008,07,15,15,14,20.50
2008,07,15,15,15,20.50
2008,07,15,15,16,20.40
2008,07,15,15,17,20.40
2008,07,15,15,18,20.40
2008,07,15,15,19,20.50
2008,07,15,15,20,20.60
2008,07,15,15,21,20.90
2008,07,15,15,22,21.00
2008,07,15,15,23,21.10
2008,07,15,15,24,21.10
2008,07,15,15,25,21.20
2008,07,15,15,26,21.40
2008,07,15,15,27,21.60
2008,07,15,15,28,21.70
2008,07,15,15,29,21.80
2008,07,15,15,30,21.80
2008,07,15,15,31,21.80
2008,07,15,15,32,21.80
2008,07,15,15,33,21.90
2008,07,15,15,34,22.00
2008,07,15,15,35,22.10
2008,07,15,15,36,22.20
2008,07,15,15,37,22.20
2008,07,15,15,38,22.20
2008,07,15,15,39,22.20
2008,07,15,15,40,22.20
2008,07,15,15,41,22.30
2008,07,15,15,42,22.30
2008,07,15,15,43,22.20
2008,07,15,15,44,22.20
2008,07,15,15,45,22.10
2008,07,15,15,46,21.90
2008,07,15,15,47,21.70
2008,07,15,15,48,21.60
2008,07,15,15,49,21.50
2008,07,15,15,50,21.40
2008,07,15,15,51,21.30
2008,07,15,15,52,21.30
2008,07,15,15,53,21.30
2008,07,15,15,54,21.30
2008,07,15,15,55,21.40
2008,07,15,15,56,21.50
2008,07,15,15,57,21.60
2008,07,15,15,58,21.70
2008,07,15,15,59,21.70
2008,07,15,16,00,21.70
2008,07,15,16,01,21.60
2008,07,15,16,02,21.50
2008,07,15,16,03,21.40
2008,07,15,16,04,21.30
2008,07,15,16,05,21.20
2008,07,15,16,06,21.20
2008,07,15,16,07,21.20
2008,07,15,16,08,21.10
2008,07,15,16,09,21.10
2008,07,15,16,10,21.10
2008,07,15,16,11,21.00
2008,07,15,16,12,21.00
2008,07,15,16,13,20.90
2008,07,15,16,14,20.90
2008,07,15,16,15,20.80
2008,07,15,16,16,20.80
2008,07,15,16,17,20.70
2008,07,15,16,18,20.70
2008,07,15,16,19,20.60
2008,07,15,16,20,20.60
2008,07,15,16,21,20.60
2008,07,15,16,22,20.60
2008,07,15,16,23,20.70
2008,07,15,16,24,20.80
2008,07,15,16,25,20.90
2008,07,15,16,26,20.90
2008,07,15,16,27,20.90
2008,07,15,16,28,20.90
2008,07,15,16,29,20.90
2008,07,15,16,30,21.00
2008,07,15,16,31,21.10
2008,07,15,16,32,21.20
2008,07,15,16,33,21.30
2008,07,15,16,34,21.40
2008,07,15,16,35,21.50
2008,07,15,16,36,21.60
2008,07,15,16,37,21.70
2008,07,15,16,38,21.80
2008,07,15,16,39,21.80
2008,07,15,16,40,21.80
2008,07,15,16,41,21.70
2008,07,15,16,42,21.60
2008,07,15,16,43,21.50
2008,07,15,16,44,21.40
2008,07,15,16,45,21.30
2008,07,15,16,46,21.30
2008,07,15,16,47,21.40
2008,07,15,16,48,21.30
2008,07,15,16,49,21.30
2008,07,15,16,50,21.40
2008,07,15,16,51,21.40
2008,07,15,16,52,21.40
2008,07,15,16,53,21.40
2008,07,15,16,54,21.40
2008,07,15,16,55,21.50
2008,07,15,16,56,21.50
2008,07,15,16,57,21.60
2008,07,15,16,58,21.60
2008,07,15,16,59,21.70
2008,07,15,17,00,21.80
2008,07,15,17,01,21.80
2008,07,15,17,02,21.90
2008,07,15,17,03,21.90
2008,07,15,17,04,22.00
2008,07,15,17,05,21.90
2008,07,15,17,06,21.90
2008,07,15,17,07,21.90
2008,07,15,17,08,21.90
2008,07,15,17,09,21.80
2008,07,15,17,10,21.80
2008,07,15,17,11,21.80
2008,07,15,17,12,21.80
2008,07,15,17,13,21.80
2008,07,15,17,14,21.80
2008,07,15,17,15,21.80
2008,07,15,17,16,21.80
2008,07,15,17,17,21.80
2008,07,15,17,18,21.80
2008,07,15,17,19,21.70
2008,07,15,17,20,21.60
2008,07,15,17,21,21.60
2008,07,15,17,22,21.50
2008,07,15,17,23,21.50
2008,07,15,17,24,21.60
2008,07,15,17,25,21.60
2008,07,15,17,26,21.60
2008,07,15,17,27,21.70
2008,07,15,17,28,21.60
2008,07,15,17,29,21.60
2008,07,15,17,30,21.60
2008,07,15,17,31,21.50
2008,07,15,17,32,21.50
2008,07,15,17,33,21.50
2008,07,15,17,34,21.40
2008,07,15,17,35,21.40
2008,07,15,17,36,21.50
2008,07,15,17,37,21.50
2008,07,15,17,38,21.60
2008,07,15,17,39,21.60
2008,07,15,17,40,21.60
2008,07,15,17,41,21.60
2008,07,15,17,42,21.60
2008,07,15,17,43,21.60
2008,07,15,17,44,21.70
2008,07,15,17,45,21.70
2008,07,15,17,46,21.70
2008,07,15,17,47,21.80
2008,07,15,17,48,21.90
2008,07,15,17,49,22.10
2008,07,15,17,50,22.20
2008,07,15,17,51,22.20
2008,07,15,17,52,22.30
2008,07,15,17,53,22.40
2008,07,15,17,54,22.60
2008,07,15,17,55,22.70
2008,07,15,17,56,22.80
2008,07,15,17,57,22.90
2008,07,15,17,58,23.00
2008,07,15,17,59,23.10
2008,07,15,18,00,23.10
2008,07,15,18,01,23.10
2008,07,15,18,02,23.10
2008,07,15,18,03,23.20
2008,07,15,18,04,23.20
2008,07,15,18,05,23.30
2008,07,15,18,06,23.30
2008,07,15,18,07,23.50